| time (UTC) | temp F | wind direction | speed MPH | gust MPH | rain 1hr in | rain 24hr in | rain mn in | humidity % | barometer mb |
| 20260502163104 | 63 | 28 | 21.0 | 31.0 | 0.00 | 0.00 | 0.00 | 36 | 1014.7 |
| 20260502161559 | 62 | 28 | 23.0 | 29.0 | 0.00 | 0.00 | 0.00 | 37 | 1014.6 |
| 20260502160104 | 62 | 333 | 22.0 | 26.0 | 0.00 | 0.00 | 0.00 | 38 | 1014.6 |
| 20260502151612 | 59 | 45 | 19.0 | 27.0 | 0.00 | 0.00 | 0.00 | 40 | 1014.5 |
| 20260502150110 | 60 | 42 | 19.0 | 25.0 | 0.00 | 0.00 | 0.00 | 39 | 1014.3 |
| 20260502123102 | 51 | 283 | 15.0 | 19.0 | 0.00 | 0.00 | 0.00 | 46 | 1013.6 |
| 20260502121603 | 46 | 288 | 8.0 | 14.0 | 0.00 | 0.00 | 0.00 | 55 | 1013.8 |
| 20260502120114 | 44 | 325 | 10.0 | 13.0 | 0.00 | 0.00 | 0.00 | 58 | 1013.7 |
| 20260502114603 | 44 | 321 | 10.0 | 14.0 | 0.00 | 0.00 | 0.00 | 57 | 1013.6 |
| 20260502113100 | 46 | 327 | 12.0 | 14.0 | 0.00 | 0.00 | 0.00 | 53 | 1013.8 |
| 20260502111603 | 48 | 5 | 7.0 | 14.0 | 0.00 | 0.00 | 0.00 | 48 | 1013.9 |
| 20260502110100 | 46 | 349 | 10.0 | 16.0 | 0.00 | 0.00 | 0.00 | 51 | 1013.9 |
| 20260502104600 | 47 | 213 | 13.0 | 16.0 | 0.00 | 0.00 | 0.00 | 49 | 1013.3 |
| 20260502103114 | 46 | 212 | 10.0 | 14.0 | 0.00 | 0.00 | 0.00 | 50 | 1013.5 |
| 20260502101559 | 45 | 222 | 10.0 | 12.0 | 0.00 | 0.00 | 0.00 | 52 | 1013.5 |
| 20260502100124 | 45 | 221 | 10.0 | 14.0 | 0.00 | 0.00 | 0.00 | 52 | 1013.6 |
| 20260502090112 | 45 | 220 | 13.0 | 16.0 | 0.00 | 0.00 | 0.00 | 52 | 1013.8 |
| 20260502064608 | 45 | 235 | 8.0 | 12.0 | 0.00 | 0.00 | 0.00 | 45 | 1015.0 |
| 20260502063101 | 46 | 217 | 11.0 | 17.0 | 0.00 | 0.00 | 0.00 | 44 | 1015.2 |
| 20260502061605 | 46 | 217 | 13.0 | 15.0 | 0.00 | 0.00 | 0.00 | 44 | 1015.2 |
| 20260502054600 | 45 | 242 | 5.0 | 8.0 | 0.00 | 0.00 | 0.00 | 45 | 1015.4 |
| 20260502053058 | 45 | 232 | 9.0 | 12.0 | 0.00 | 0.00 | 0.00 | 45 | 1015.6 |
| 20260502051702 | 46 | 230 | 6.0 | 12.0 | 0.00 | 0.00 | 0.00 | 44 | 1015.7 |
| 20260502044609 | 47 | 202 | 6.0 | 15.0 | 0.00 | 0.00 | 0.00 | 41 | 1016.0 |
| 20260502043109 | 48 | 218 | 8.0 | 13.0 | 0.00 | 0.00 | 0.00 | 39 | 1016.0 |
| 20260502041558 | 47 | 221 | 7.0 | 10.0 | 0.00 | 0.00 | 0.00 | 40 | 1016.2 |
| 20260502040101 | 47 | 220 | 6.0 | 10.0 | 0.00 | 0.00 | 0.00 | 40 | 1016.3 |
| 20260502034600 | 48 | 202 | 5.0 | 9.0 | 0.00 | 0.00 | 0.00 | 39 | 1016.4 |
| 20260502033101 | 48 | 204 | 4.0 | 7.0 | 0.00 | 0.00 | 0.00 | 38 | 1016.4 |
| 20260502031653 | 50 | 211 | 8.0 | 11.0 | 0.00 | 0.00 | 0.00 | 36 | 1016.4 |
| 20260502030101 | 50 | 213 | 6.0 | 9.0 | 0.00 | 0.00 | 0.00 | 36 | 1016.4 |
| 20260502024559 | 51 | 228 | 7.0 | 9.0 | 0.00 | 0.00 | 0.00 | 34 | 1016.5 |
| 20260502023101 | 53 | 229 | 7.0 | 8.0 | 0.00 | 0.00 | 0.00 | 33 | 1016.5 |
| 20260502021600 | 54 | 213 | 6.0 | 8.0 | 0.00 | 0.00 | 0.00 | 31 | 1016.4 |
| 20260502020113 | 57 | 213 | 6.0 | 7.0 | 0.00 | 0.00 | 0.00 | 29 | 1016.4 |
| 20260502014559 | 59 | 196 | 5.0 | 8.0 | 0.00 | 0.00 | 0.00 | 26 | 1016.4 |
| 20260502013112 | 62 | 196 | 6.0 | 10.0 | 0.00 | 0.00 | 0.00 | 23 | 1016.4 |
| 20260502011559 | 63 | 192 | 8.0 | 15.0 | 0.00 | 0.00 | 0.00 | 21 | 1016.6 |
| 20260502010058 | 64 | 196 | 11.0 | 17.0 | 0.00 | 0.00 | 0.00 | 20 | 1016.7 |
| 20260502004602 | 64 | 207 | 11.0 | 16.0 | 0.00 | 0.00 | 0.00 | 20 | 1016.6 |
| 20260502003101 | 64 | 182 | 7.0 | 19.0 | 0.00 | 0.00 | 0.00 | 19 | 1016.9 |
| 20260502001601 | 64 | 229 | 12.0 | 18.0 | 0.00 | 0.00 | 0.00 | 19 | 1017.0 |
| 20260501234601 | 64 | 251 | 8.0 | 17.0 | 0.00 | 0.00 | 0.00 | 19 | 1016.9 |
| 20260501233112 | 64 | 240 | 11.0 | 18.0 | 0.00 | 0.00 | 0.00 | 18 | 1017.1 |
| 20260501231614 | 64 | 226 | 6.0 | 20.0 | 0.00 | 0.00 | 0.00 | 18 | 1017.2 |
| 20260501230120 | 64 | 228 | 4.0 | 11.0 | 0.00 | 0.00 | 0.00 | 17 | 1017.4 |
| 20260501224603 | 64 | 226 | 10.0 | 20.0 | 0.00 | 0.00 | 0.00 | 18 | 1017.4 |
| 20260501223108 | 65 | 250 | 10.0 | 15.0 | 0.00 | 0.00 | 0.00 | 18 | 1017.5 |
| 20260501221601 | 64 | 291 | 3.0 | 19.0 | 0.00 | 0.00 | 0.00 | 18 | 1017.6 |
| 20260501220100 | 63 | 0 | 7.0 | 21.0 | 0.00 | 0.00 | 0.00 | 19 | 1017.6 |
| 20260501214612 | 63 | 255 | 11.0 | 17.0 | 0.00 | 0.00 | 0.00 | 20 | 1017.9 |
| 20260501213105 | 64 | 198 | 7.0 | 18.0 | 0.00 | 0.00 | 0.00 | 19 | 1018.1 |
| 20260501211601 | 64 | 156 | 12.0 | 19.0 | 0.00 | 0.00 | 0.00 | 20 | 1018.3 |
| 20260501210059 | 63 | 162 | 11.0 | 18.0 | 0.00 | 0.00 | 0.00 | 20 | 1018.2 |
| 20260501204601 | 63 | 271 | 8.0 | 18.0 | 0.00 | 0.00 | 0.00 | 20 | 1018.5 |
| 20260501203102 | 62 | 228 | 4.0 | 12.0 | 0.00 | 0.00 | 0.00 | 20 | 1018.5 |
| 20260501201601 | 62 | 208 | 7.0 | 16.0 | 0.00 | 0.00 | 0.00 | 21 | 1018.6 |
| 20260501200100 | 61 | 254 | 0.0 | 12.0 | 0.00 | 0.00 | 0.00 | 22 | 1018.7 |
| 20260501194603 | 61 | 199 | 12.0 | 18.0 | 0.00 | 0.00 | 0.00 | 20 | 1018.8 |
| 20260501193059 | 62 | 201 | 6.0 | 12.0 | 0.00 | 0.00 | 0.00 | 22 | 1018.7 |
| 20260501191606 | 61 | 140 | 9.0 | 22.0 | 0.00 | 0.00 | 0.00 | 22 | 1019.0 |
| 20260501190129 | 61 | 133 | 3.0 | 16.0 | 0.00 | 0.00 | 0.00 | 23 | 1018.9 |
| 20260501184600 | 61 | 150 | 8.0 | 15.0 | 0.00 | 0.00 | 0.00 | 23 | 1019.0 |
| 20260501183059 | 60 | 157 | 5.0 | 21.0 | 0.00 | 0.00 | 0.00 | 25 | 1019.1 |
| 20260501181602 | 59 | 182 | 6.0 | 22.0 | 0.00 | 0.00 | 0.00 | 25 | 1019.2 |
| 20260501174612 | 58 | 144 | 8.0 | 16.0 | 0.00 | 0.00 | 0.00 | 26 | 1019.3 |
| 20260501173108 | 58 | 127 | 12.0 | 17.0 | 0.00 | 0.00 | 0.00 | 26 | 1019.5 |
| 20260501171602 | 57 | 183 | 11.0 | 21.0 | 0.00 | 0.00 | 0.00 | 27 | 1019.4 |